Back to catalog

ORBCOMM FM 3

AliveCommunicationsLEO
NORAD 25158·PAYLOAD·🇺🇸 United States

Launched Feb 10, 1998 from Vandenberg Space Force Base

Loading…

Next Passes (next 24 hours)

TLE

FreshSource: Space-Track

Epoch: Sep 14, 2026, 05:52 UTC

1 25158U 98007B   26257.24483799  .00000558  00000-0  23659-3 0  9999
2 25158 107.9614 349.2004 0044800 175.9376 184.2135 14.35647159489186

Track ORBCOMM FM 3 in real time with AllMySat

Download on the App Store